Location: Seattle
(47.6064°N, 122.3308°W)
Time: 03:42:24
(UTC-08:00)

N. Korean satellite - Pass Details

Date: 02 November 2020
Orbit: 453 x 503 km, 97.2° (Epoch: 03 December)

Event Time Altitude Azimuth Distance (km) Brightness Sun altitude
Rises 17:57:00 0° 212° (SSW) 2,520 10.9 -11.8°
Reaches altitude 10° 18:00:04 10° 242° (WSW) 1,636 10.5 -12.3°
Maximum altitude 18:01:41 13° 270° (W) 1,472 10.4 -12.6°
Drops below altitude 10° 18:03:18 10° 297° (WNW) 1,630 10.1 -12.9°
Sets 18:06:21 0° 328° (NNW) 2,502 10.5 -13.4°
